Starlink 6125

operational
NORAD ID: 57114 Int'l Des: 2023-090 Owner: SPXS Country: US Constellation: starlink
LEOCIRCULAR

About Starlink 6125

Description loading...

Live Position

Loading 3D Globe...

Upcoming Passes

Altitude History

Altitude vs Time

uPlot chart will show altitude changes over time

Two-Line Element Set

1 57114U 23090P 25351.32494277 .00001812 00000-0 14923-3 0 9990
2 57114 43.0056 2.1914 0001306 259.6018 100.4677 15.02528488138028
Epoch: Dec 17, 2025 • Age: 11 hours

Current Status

Altitude 558.5 km
Velocity 7.58 km/s
Sub-Earth Point 11.00°N, 0.63°W
Launch Date Jun 23, 2023
Age 2.4 years
Type internet

Technical Details

Classification Payload
Mass 305.00 kg
Dry Mass 290.00 kg
Total Mass 305.00 kg
Length 0.20 m
Diameter 2.80 m
Span 9.00 m
Shape Box + pan
Manufacturer SPXS
Bus Type Starlink
Phase Status In Orbit
Owner/State SPXS/US

Large Constellations

Loading constellations...